STARLINK-34946, 65367

Orbit data source: Space-Track

STARLINK-34946, 65367 is a payload satellite owned by SpaceX/Seattle (US) in LEO that was launched on Thu, 28 Aug 2025 UTC via an FALCON 9 launch vehicle from the Air Force Eastern Test Range (AFETR). Payload-class satellites include a variety of spacecraft equipped with specific instruments for various scientific and technological missions. These include communications satellites like Starlink; space stations such as the ISS; scientific satellites like the Hubble; Earth observation satellites from companies like Planet Labs, Umbra, and HawkEye 360; GPS; miniature CubeSats for education and research; and military/defense satellites.

Loading next visibility...
Identifier
65367, 2025-190S
Orbit
LEO
Country
Flag of USUS
Related business
Manufacturer
SpaceX/Seattle
Mission
Operational Commercial Communications
Bus & Motor
STARLINK V2MO, Unknown motor
Mass
575 kg wet, ~530 kg dry
Launch date (UTC)
2025-08-28 (7 months ago)
Launch vehicle
FALCON 9
Launch site
Air Force Eastern Test Range (AFETR)
Object type
Payload
Rocket body
Debris
Shape & HBR
Box + 2 Pan, 17.7 m
Radar Cross Section
36.964 m², Large (>1 m²)

Expand to show TLE details & history
Last TLE update: 10 hours ago

TLE from 10 hours ago
0 STARLINK-34946
1 65367U 25190S   26094.16066720  .00059443  00000-0  20029-2 0  9993
2 65367  53.1596  49.9520 0001097 103.0237 257.0887 15.30203484 33654
Epoch: 2026-04-04T03:51Z
TLE epoch observation values (Epoch: 2026-04-04T03:51:21.646Z)
Latitude
0.00006°
Longitude
159.62743°
Altitude
476.272 km
Speed
7.629 km/s
True Right ascension
03h 19m 48s
True Declination
0° 00' 00"
Sunlit
Object was in daylight at epoch
Visualization orbit readout
Latitude
Unknown
Longitude
Unknown
Altitude
Unknown
Speed
Unknown
Apparent Right ascension
Unknown
Apparent Declination
Unknown
Sunlit
N/A
Visualization observer readout
Local Sidereal Time
19:27:11
Azimuth
Unknown
Elevation
Unknown
Doppler factor
Unknown
Orbital elements
Apogee altitude
476.213 km
Perigee altitude
474.709 km
Semi-major axis
6,853.598 km
Eccentricity
0.00011
Inclination
53.1596°
RAAN
49.952°
Arg. of periapsis
103.0237°
True anomaly
257.07645°
Mean anomaly
257.0887°
Eccentric anomaly
257.08257°
Mean motion
3.8253 °/min
Orbital period
94.11 mins
BSTAR
0.0020029
Loading maneuver chart data...
Computing Atmospheric mass density...
Loading historical data...
Loading historical data...
Loading historical data...
Loading historical data...
Loading historical data...
Loading historical data...
Loading historical data...

Documentation

Showing up to 5 results
|